Find Starlink 36821

NORAD ID: 67880 Int'l Des: 2026-035 Owner: SPXS Country: US Constellation: starlink operational
LEOCIRCULARRETROGRADE

現在のビュー

3D地球を読み込み中...

Starlink 36821について

説明を読み込み中...

次回通過

Passes for default location (London). Set your location on the main map for personalized predictions.

高度履歴

Loading altitude history...

軌道要素

1 67880U 26035B 26146.40184558 .00016683 00000-0 51785-3 0 9992
2 67880 97.2851 79.8480 0001848 100.6259 259.5192 15.33449202 15892
Epoch: May 26, 2026 • Age: 10 hours

現在のステータス

高度 470.9 km
速度 7.64 km/s
衛星直下点 41.35°N, 98.88°W
打ち上げ日 Feb 21, 2026
運用期間 0.2 years
タイプ internet

技術仕様

分類 Payload
質量 575.00 kg
乾燥質量 530.00 kg
総質量 575.00 kg
長さ 0.30 m
直径 4.10 m
スパン 29.00 m
形状 Box + pan
製造者 SPXS
バスタイプ Starlink V2MO
フェーズステータス In Orbit
所有者/国 SPXS/US

Most Searched